Location: Unspecified
(43.4680°N, 87.1740°E)
Time: 20:58:54
(UTC+00:00)

Okean 1-7 - Pass Details

Date: 17 April 2021
Orbit: 590 x 618 km, 82.5° (Epoch: 12 May)

Event Time Altitude Azimuth Distance (km) Brightness Sun altitude
Exits shadow 20:41:02 58° 85° (E) 697 3.4 -25.9°
Drops below altitude 10° 20:45:06 10° 16° (NNE) 1,937 6.4 -25.4°
Sets 20:47:19 0° 13° (NNE) 2,840 7.4 -25.1°
